Regional Weather Roundup
Issued by NWS

Home | Current Version | Previous Version | Graphics & Text | Print | Product List | Glossary On
Versions: 1 2 3 4 5 6 7 8 9 10 11 12 13 14 15 16 17 18 19 20 21 22 23 24 25 26 27 28 29 30 31 32 33 34 35 36 37 38 39 40 41 42 43 44 45 46 47 48 49 50
000
ASUS45 KPSR 252010
RWRAZ

ARIZONA HOURLY REGIONAL WEATHER ROUNDUP
NATIONAL WEATHER SERVICE PHOENIX AZ
100 PM MST MON MAY 25 2015

NOTE: FAIR INDICATES FEW OR NO CLOUDS BELOW 12,000 FEET WITH NO
SIGNIFICANT WEATHER AND/OR OBSTRUCTIONS TO VISIBILITY.

AZZ001>003-036-252100-
NORTHWEST ARIZONA

CITY           SKY/WX    TMP DP  RH WIND       PRES   REMARKS
BULLHEAD CITY  SUNNY     90  45  20 S7G16     29.86F
KINGMAN        SUNNY     77  39  25 VRB7G23   29.98F
$$

AZZ004>008-015-016-018-252100-
NORTH CENTRAL ARIZONA

CITY           SKY/WX    TMP DP  RH WIND       PRES   REMARKS
GRAND CANYON   MOSUNNY   59  42  53 NW9       30.11S
WILLIAMS       PTSUNNY   54  45  71 SW10G17   30.19S
PRESCOTT       PTSUNNY   71  37  28 SW14G26   30.05F
FLAGSTAFF      PTSUNNY   50  45  83 SW9       30.14F THUNDER
PAYSON         MOSUNNY   70  39  32 SW9G21    30.08F
PAGE           SUNNY     72  44  36 VRB3      29.96F
$$

AZZ009>014-017-252100-
NORTHEAST ARIZONA

CITY           SKY/WX    TMP DP  RH WIND       PRES   REMARKS
WINSLOW        PTSUNNY   63  50  62 CALM      30.05F
SAINT JOHNS    MOSUNNY   65  39  38 SW12G18   30.06F
WINDOW ROCK    LGT RAIN  50  44  80 W7        30.10R
SHOW LOW       PTSUNNY   59  37  44 SW13      30.12S
$$

AZZ023-252100-
GREATER PHOENIX AREA

CITY           SKY/WX    TMP DP  RH WIND       PRES   REMARKS
PHOENIX        MOSUNNY   86  40  19 W14       29.89F
BUCKEYE        SUNNY     86  39  19 W7        29.91F
GLENDALE       MOSUNNY   88  39  18 S9        29.91F
DEER VALLEY    SUNNY     84  39  20 W12G20    29.90F
SCOTTSDALE     SUNNY     84  38  19 VRB7      29.92F
MESA-FALCON    MOSUNNY   82  41  23 SW8       29.91F
MESA-GATEWAY   MOSUNNY   82  43  24 VRB5      29.93F
CHANDLER       MOSUNNY   84  43  23 S10       29.91F
$$

AZZ027-028-252100-
SOUTHWEST MARICOPA COUNTY AND PINAL COUNTY

CITY           SKY/WX    TMP DP  RH WIND       PRES   REMARKS
CASA GRANDE    SUNNY     84  43  23 NW9       29.91F
$$

AZZ503-504-507>509-252100-
SOUTHEAST ARIZONA

CITY           SKY/WX    TMP DP  RH WIND       PRES   REMARKS
TUCSON         SUNNY     83  32  16 NW9       29.97F
DAVIS-MONTHAN  MOSUNNY   80  31  16 N6        29.96F
RYAN FIELD       N/A     84  36  17 CALM      29.97F
NOGALES        SUNNY     80  29  15 VRB6      30.01F
SIERRA VISTA   MOSUNNY   74  32  21 S5        30.05F
DOUGLAS        SUNNY     77  29  17 W9        30.01F
SAFFORD        SUNNY     83  30  14 W10G22    29.93F
$$

AZZ020-021-025-026-031-252100-
SOUTHWEST ARIZONA

CITY           SKY/WX    TMP DP  RH WIND       PRES   REMARKS
YUMA           SUNNY     89  42  19 SW9       29.87F
$$

CAZ031-033-041-043-047-048-061-252100-
SOUTHERN CALIFORNIA

CITY           SKY/WX    TMP DP  RH WIND       PRES   REMARKS
DOWNTOWN L.A.  CLOUDY    68  54  60 CALM      30.00F
L.A. AIRPORT   PTSUNNY   63  55  75 W8        30.01F
SAN DIEGO      CLOUDY    63  54  72 W6        30.03F
BURBANK        CLOUDY    66  52  60 S9        29.99F
ONTARIO        CLOUDY    66  52  60 S6        30.00F
RIVERSIDE      PTSUNNY   70  53  54 VRB6      30.00F
PALM SPRINGS   MOSUNNY   87  49  26 N10       29.89F
EL CENTRO NAS  SUNNY     88  48  25 SE9       29.86F
IMPERIAL       SUNNY     89  49  25 E10       29.84F
BLYTHE         SUNNY     89  42  19 SE15      29.86F
NEEDLES        SUNNY     92  40  16 VRB6      29.85F
$$

NVZ020-UTZ003-252100-
SOUTHERN NEVADA-UTAH

CITY           SKY/WX    TMP DP  RH WIND       PRES   REMARKS
LAS VEGAS      MOSUNNY   80  48  32 VRB3      29.89F
SALT LAKE CITY MOSUNNY   67  43  41 NW10      29.95F
$$

NMZ009-TXZ055-252100-
NEW MEXICO-WEST TEXAS

CITY           SKY/WX    TMP DP  RH WIND       PRES   REMARKS
ALBUQUERQUE    PTSUNNY   68  39  34 W7        29.97F
EL PASO        MOSUNNY   79  28  15 W12G26    29.96F
$$


........................KEY........................
SKY/WX - SKY CONDITION/WEATHER
TMP    - TEMPERATURE IN FAHRENHEIT
DP     - DEW POINT IN FAHRENHEIT
RH     - RELATIVE HUMIDITY IN PERCENT
WIND   - DIRECTION AND SPEED IN MILES PER HOUR (MPH)
VRB    - VARIABLE WIND DIRECTION
PRES   - MEAN SEA LEVEL PRESSURE IN INCHES OF MERCURY
         F - FALLING PRESSURE   R - RISING PRESSURE
         S - STEADY PRESSURE
VSB    - VISIBILITY IN MILES
HX     - HEAT INDEX IN FAHRENHEIT
WCI    - WIND CHILL INDEX IN FAHRENHEIT
TC     - TEMPERATURE IN CELSIUS WHICH IS ALSO KNOWN AS
         TEMPERATURE IN CENTIGRADE
AFB    - AIR FORCE BASE
         LUKE AFB IS LUKE AIR FORCE BASE
         DAVIS-MONTHAN IS DAVIS-MONTHAN AIR FORCE BASE
NAS    - NAVAL AIR STATION
         EL CENTRO NAS IS EL CENTRO NAVAL AIR STATION
N/A    - NOT AVAILABLE




USA.gov is the U.S. government's official web portal to all federal, state and local government web resources and services.